Year,Month,Day,Hour,Minute,Value (Times are PST for temperature in C)
2008,03,23,00,00,9.10
2008,03,23,00,01,9.10
2008,03,23,00,02,9.10
2008,03,23,00,03,9.00
2008,03,23,00,04,9.00
2008,03,23,00,05,9.00
2008,03,23,00,06,9.00
2008,03,23,00,07,9.00
2008,03,23,00,08,9.00
2008,03,23,00,09,9.00
2008,03,23,00,10,9.00
2008,03,23,00,11,9.00
2008,03,23,00,12,9.00
2008,03,23,00,13,9.00
2008,03,23,00,14,9.00
2008,03,23,00,15,9.10
2008,03,23,00,16,9.10
2008,03,23,00,17,9.10
2008,03,23,00,18,9.10
2008,03,23,00,19,9.10
2008,03,23,00,20,9.20
2008,03,23,00,21,9.20
2008,03,23,00,22,9.20
2008,03,23,00,23,9.20
2008,03,23,00,24,9.20
2008,03,23,00,25,9.20
2008,03,23,00,26,9.20
2008,03,23,00,27,9.20
2008,03,23,00,28,9.20
2008,03,23,00,29,9.20
2008,03,23,00,30,9.20
2008,03,23,00,31,9.20
2008,03,23,00,32,9.20
2008,03,23,00,33,9.20
2008,03,23,00,34,9.30
2008,03,23,00,35,9.30
2008,03,23,00,36,9.30
2008,03,23,00,37,9.30
2008,03,23,00,38,9.30
2008,03,23,00,39,9.30
2008,03,23,00,40,9.30
2008,03,23,00,41,9.30
2008,03,23,00,42,9.30
2008,03,23,00,43,9.30
2008,03,23,00,44,9.20
2008,03,23,00,45,9.20
2008,03,23,00,46,9.20
2008,03,23,00,47,9.20
2008,03,23,00,48,9.20
2008,03,23,00,49,9.20
2008,03,23,00,50,9.20
2008,03,23,00,51,9.20
2008,03,23,00,52,9.20
2008,03,23,00,53,9.20
2008,03,23,00,54,9.20
2008,03,23,00,55,9.20
2008,03,23,00,56,9.10
2008,03,23,00,57,9.10
2008,03,23,00,58,9.00
2008,03,23,00,59,9.00
2008,03,23,01,00,9.00
2008,03,23,01,01,8.90
2008,03,23,01,02,8.90
2008,03,23,01,03,8.90
2008,03,23,01,04,8.80
2008,03,23,01,05,8.80
2008,03,23,01,06,8.80
2008,03,23,01,07,8.80
2008,03,23,01,08,8.80
2008,03,23,01,09,8.70
2008,03,23,01,10,8.70
2008,03,23,01,11,8.70
2008,03,23,01,12,8.70
2008,03,23,01,13,8.70
2008,03,23,01,14,8.70
2008,03,23,01,15,8.70
2008,03,23,01,16,8.70
2008,03,23,01,17,8.70
2008,03,23,01,18,8.70
2008,03,23,01,19,8.70
2008,03,23,01,20,8.70
2008,03,23,01,21,8.70
2008,03,23,01,22,8.70
2008,03,23,01,23,8.70
2008,03,23,01,24,8.70
2008,03,23,01,25,8.70
2008,03,23,01,26,8.60
2008,03,23,01,27,8.60
2008,03,23,01,28,8.60
2008,03,23,01,29,8.60
2008,03,23,01,30,8.60
2008,03,23,01,31,8.50
2008,03,23,01,32,8.50
2008,03,23,01,33,8.50
2008,03,23,01,34,8.50
2008,03,23,01,35,8.50
2008,03,23,01,36,8.50
2008,03,23,01,37,8.50
2008,03,23,01,38,8.50
2008,03,23,01,39,8.40
2008,03,23,01,40,8.40
2008,03,23,01,41,8.40
2008,03,23,01,42,8.50
2008,03,23,01,43,8.60
2008,03,23,01,44,8.70
2008,03,23,01,45,8.70
2008,03,23,01,46,8.80
2008,03,23,01,47,8.90
2008,03,23,01,48,9.00
2008,03,23,01,49,9.10
2008,03,23,01,50,9.10
2008,03,23,01,51,9.20
2008,03,23,01,52,9.20
2008,03,23,01,53,9.20
2008,03,23,01,54,9.20
2008,03,23,01,55,9.20
2008,03,23,01,56,9.20
2008,03,23,01,57,9.20
2008,03,23,01,58,9.20
2008,03,23,01,59,9.20
2008,03,23,02,00,9.20
2008,03,23,02,01,9.10
2008,03,23,02,02,9.10
2008,03,23,02,03,9.10
2008,03,23,02,04,9.10
2008,03,23,02,05,9.10
2008,03,23,02,06,9.00
2008,03,23,02,07,9.00
2008,03,23,02,08,9.00
2008,03,23,02,09,9.00
2008,03,23,02,10,8.90
2008,03,23,02,11,8.90
2008,03,23,02,12,8.90
2008,03,23,02,13,8.80
2008,03,23,02,14,8.80
2008,03,23,02,15,8.80
2008,03,23,02,16,8.70
2008,03,23,02,17,8.70
2008,03,23,02,18,8.70
2008,03,23,02,19,8.60
2008,03,23,02,20,8.60
2008,03,23,02,21,8.60
2008,03,23,02,22,8.50
2008,03,23,02,23,8.50
2008,03,23,02,24,8.50
2008,03,23,02,25,8.50
2008,03,23,02,26,8.50
2008,03,23,02,27,8.40
2008,03,23,02,28,8.40
2008,03,23,02,29,8.40
2008,03,23,02,30,8.40
2008,03,23,02,31,8.30
2008,03,23,02,32,8.30
2008,03,23,02,33,8.30
2008,03,23,02,34,8.30
2008,03,23,02,35,8.20
2008,03,23,02,36,8.20
2008,03,23,02,37,8.20
2008,03,23,02,38,8.20
2008,03,23,02,39,8.20
2008,03,23,02,40,8.20
2008,03,23,02,41,8.10
2008,03,23,02,42,8.10
2008,03,23,02,43,8.00
2008,03,23,02,44,8.00
2008,03,23,02,45,7.90
2008,03,23,02,46,7.90
2008,03,23,02,47,7.80
2008,03,23,02,48,7.80
2008,03,23,02,49,7.80
2008,03,23,02,50,7.70
2008,03,23,02,51,7.60
2008,03,23,02,52,7.50
2008,03,23,02,53,7.50
2008,03,23,02,54,7.40
2008,03,23,02,55,7.30
2008,03,23,02,56,7.30
2008,03,23,02,57,7.20
2008,03,23,02,58,7.20
2008,03,23,02,59,7.10
2008,03,23,03,00,7.10
2008,03,23,03,01,7.00
2008,03,23,03,02,6.90
2008,03,23,03,03,6.90
2008,03,23,03,04,6.80
2008,03,23,03,05,6.80
2008,03,23,03,06,6.80
2008,03,23,03,07,6.70
2008,03,23,03,08,6.60
2008,03,23,03,09,6.60
2008,03,23,03,10,6.60
2008,03,23,03,11,6.50
2008,03,23,03,12,6.40
2008,03,23,03,13,6.40
2008,03,23,03,14,6.40
2008,03,23,03,15,6.30
2008,03,23,03,16,6.30
2008,03,23,03,17,6.30
2008,03,23,03,18,6.20
2008,03,23,03,19,6.20
2008,03,23,03,20,6.20
2008,03,23,03,21,6.20
2008,03,23,03,22,6.20
2008,03,23,03,23,6.20
2008,03,23,03,24,6.20
2008,03,23,03,25,6.20
2008,03,23,03,26,6.10
2008,03,23,03,27,6.10
2008,03,23,03,28,6.10
2008,03,23,03,29,6.10
2008,03,23,03,30,6.00
2008,03,23,03,31,6.00
2008,03,23,03,32,6.00
2008,03,23,03,33,6.00
2008,03,23,03,34,5.90
2008,03,23,03,35,5.90
2008,03,23,03,36,5.90
2008,03,23,03,37,5.90
2008,03,23,03,38,5.90
2008,03,23,03,39,5.90
2008,03,23,03,40,5.90
2008,03,23,03,41,5.90
2008,03,23,03,42,5.90
2008,03,23,03,43,5.90
2008,03,23,03,44,5.90
2008,03,23,03,45,5.90
2008,03,23,03,46,5.80
2008,03,23,03,47,5.80
2008,03,23,03,48,5.80
2008,03,23,03,49,5.80
2008,03,23,03,50,5.80
2008,03,23,03,51,5.80
2008,03,23,03,52,5.80
2008,03,23,03,53,5.80
2008,03,23,03,54,5.80
2008,03,23,03,55,5.80
2008,03,23,03,56,5.80
2008,03,23,03,57,5.80
2008,03,23,03,58,5.80
2008,03,23,03,59,5.80
2008,03,23,04,00,5.80
2008,03,23,04,01,5.80
2008,03,23,04,02,5.80
2008,03,23,04,03,5.70
2008,03,23,04,04,5.70
2008,03,23,04,05,5.70
2008,03,23,04,06,5.70
2008,03,23,04,07,5.70
2008,03,23,04,08,5.70
2008,03,23,04,09,5.70
2008,03,23,04,10,5.70
2008,03,23,04,11,5.70
2008,03,23,04,12,5.70
2008,03,23,04,13,5.70
2008,03,23,04,14,5.70
2008,03,23,04,15,5.70
2008,03,23,04,16,5.70
2008,03,23,04,17,5.70
2008,03,23,04,18,5.70
2008,03,23,04,19,5.70
2008,03,23,04,20,5.70
2008,03,23,04,21,5.70
2008,03,23,04,22,5.70
2008,03,23,04,23,5.70
2008,03,23,04,24,5.70
2008,03,23,04,25,5.70
2008,03,23,04,26,5.70
2008,03,23,04,27,5.70
2008,03,23,04,28,5.70
2008,03,23,04,29,5.70
2008,03,23,04,30,5.70
2008,03,23,04,31,5.70
2008,03,23,04,32,5.70
2008,03,23,04,33,5.70
2008,03,23,04,34,5.70
2008,03,23,04,35,5.70
2008,03,23,04,36,5.70
2008,03,23,04,37,5.70
2008,03,23,04,38,5.70
2008,03,23,04,39,5.70
2008,03,23,04,40,5.70
2008,03,23,04,41,5.70
2008,03,23,04,42,5.70
2008,03,23,04,43,5.70
2008,03,23,04,44,5.70
2008,03,23,04,45,5.70
2008,03,23,04,46,5.70
2008,03,23,04,47,5.60
2008,03,23,04,48,5.60
2008,03,23,04,49,5.60
2008,03,23,04,50,5.60
2008,03,23,04,51,5.60
2008,03,23,04,52,5.60
2008,03,23,04,53,5.60
2008,03,23,04,54,5.50
2008,03,23,04,55,5.50
2008,03,23,04,56,5.50
2008,03,23,04,57,5.50
2008,03,23,04,58,5.50
2008,03,23,04,59,5.50
2008,03,23,05,00,5.50
2008,03,23,05,01,5.40
2008,03,23,05,02,5.40
2008,03,23,05,03,5.40
2008,03,23,05,04,5.40
2008,03,23,05,05,5.40
2008,03,23,05,06,5.40
2008,03,23,05,07,5.40
2008,03,23,05,08,5.40
2008,03,23,05,09,5.30
2008,03,23,05,10,5.30
2008,03,23,05,11,5.30
2008,03,23,05,12,5.30
2008,03,23,05,13,5.30
2008,03,23,05,14,5.30
2008,03,23,05,15,5.30
2008,03,23,05,16,5.30
2008,03,23,05,17,5.30
2008,03,23,05,18,5.30
2008,03,23,05,19,5.30
2008,03,23,05,20,5.30
2008,03,23,05,21,5.30
2008,03,23,05,22,5.30
2008,03,23,05,23,5.30
2008,03,23,05,24,5.30
2008,03,23,05,25,5.30
2008,03,23,05,26,5.30
2008,03,23,05,27,5.30
2008,03,23,05,28,5.30
2008,03,23,05,29,5.30
2008,03,23,05,30,5.30
2008,03,23,05,31,5.30
2008,03,23,05,32,5.30
2008,03,23,05,33,5.30
2008,03,23,05,34,5.30
2008,03,23,05,35,5.30
2008,03,23,05,36,5.30
2008,03,23,05,37,5.30
2008,03,23,05,38,5.30
2008,03,23,05,39,5.30
2008,03,23,05,40,5.30
2008,03,23,05,41,5.30
2008,03,23,05,42,5.30
2008,03,23,05,43,5.30
2008,03,23,05,44,5.30
2008,03,23,05,45,5.30
2008,03,23,05,46,5.40
2008,03,23,05,47,5.40
2008,03,23,05,48,5.40
2008,03,23,05,49,5.40
2008,03,23,05,50,5.40
2008,03,23,05,51,5.40
2008,03,23,05,52,5.40
2008,03,23,05,53,5.50
2008,03,23,05,54,5.50
2008,03,23,05,55,5.50
2008,03,23,05,56,5.50
2008,03,23,05,57,5.50
2008,03,23,05,58,5.50
2008,03,23,05,59,5.50
2008,03,23,06,00,5.50
2008,03,23,06,01,5.50
2008,03,23,06,02,5.50
2008,03,23,06,03,5.50
2008,03,23,06,04,5.50
2008,03,23,06,05,5.50
2008,03,23,06,06,5.50
2008,03,23,06,07,5.50
2008,03,23,06,08,5.50
2008,03,23,06,09,5.50
2008,03,23,06,10,5.50
2008,03,23,06,11,5.40
2008,03,23,06,12,5.40
2008,03,23,06,13,5.40
2008,03,23,06,14,5.40
2008,03,23,06,15,5.30
2008,03,23,06,16,5.30
2008,03,23,06,17,5.30
2008,03,23,06,18,5.30
2008,03,23,06,19,5.30
2008,03,23,06,20,5.30
2008,03,23,06,21,5.30
2008,03,23,06,22,5.30
2008,03,23,06,23,5.30
2008,03,23,06,24,5.30
2008,03,23,06,25,5.30
2008,03,23,06,26,5.30
2008,03,23,06,27,5.20
2008,03,23,06,28,5.20
2008,03,23,06,29,5.20
2008,03,23,06,30,5.20
2008,03,23,06,31,5.20
2008,03,23,06,32,5.20
2008,03,23,06,33,5.20
2008,03,23,06,34,5.10
2008,03,23,06,35,5.10
2008,03,23,06,36,5.10
2008,03,23,06,37,5.10
2008,03,23,06,38,5.10
2008,03,23,06,39,5.10
2008,03,23,06,40,5.10
2008,03,23,06,41,5.10
2008,03,23,06,42,5.10
2008,03,23,06,43,5.10
2008,03,23,06,44,5.10
2008,03,23,06,45,5.10
2008,03,23,06,46,5.10
2008,03,23,06,47,5.10
2008,03,23,06,48,5.10
2008,03,23,06,49,5.10
2008,03,23,06,50,5.10
2008,03,23,06,51,5.10
2008,03,23,06,52,5.10
2008,03,23,06,53,5.10
2008,03,23,06,54,5.10
2008,03,23,06,55,5.10
2008,03,23,06,56,5.10
2008,03,23,06,57,5.00
2008,03,23,06,58,4.90
2008,03,23,06,59,4.90
2008,03,23,07,00,4.90
2008,03,23,07,01,4.90
2008,03,23,07,02,4.90
2008,03,23,07,03,4.90
2008,03,23,07,04,4.90
2008,03,23,07,05,4.90
2008,03,23,07,06,4.90
2008,03,23,07,07,4.90
2008,03,23,07,08,4.90
2008,03,23,07,09,4.90
2008,03,23,07,10,4.90
2008,03,23,07,11,4.90
2008,03,23,07,12,4.90
2008,03,23,07,13,4.80
2008,03,23,07,14,4.80
2008,03,23,07,15,4.80
2008,03,23,07,16,4.80
2008,03,23,07,17,4.80
2008,03,23,07,18,4.80
2008,03,23,07,19,4.90
2008,03,23,07,20,4.90
2008,03,23,07,21,4.90
2008,03,23,07,22,4.90
2008,03,23,07,23,4.90
2008,03,23,07,24,4.90
2008,03,23,07,25,4.90
2008,03,23,07,26,4.90
2008,03,23,07,27,4.90
2008,03,23,07,28,4.80
2008,03,23,07,29,4.80
2008,03,23,07,30,4.70
2008,03,23,07,31,4.60
2008,03,23,07,32,4.60
2008,03,23,07,33,4.60
2008,03,23,07,34,4.60
2008,03,23,07,35,4.50
2008,03,23,07,36,4.50
2008,03,23,07,37,4.40
2008,03,23,07,38,4.40
2008,03,23,07,39,4.30
2008,03,23,07,40,4.30
2008,03,23,07,41,4.20
2008,03,23,07,42,4.20
2008,03,23,07,43,4.20
2008,03,23,07,44,4.20
2008,03,23,07,45,4.20
2008,03,23,07,46,4.20
2008,03,23,07,47,4.20
2008,03,23,07,48,4.20
2008,03,23,07,49,4.20
2008,03,23,07,50,4.20
2008,03,23,07,51,4.20
2008,03,23,07,52,4.20
2008,03,23,07,53,4.20
2008,03,23,07,54,4.20
2008,03,23,07,55,4.20
2008,03,23,07,56,4.20
2008,03,23,07,57,4.20
2008,03,23,07,58,4.20
2008,03,23,07,59,4.10
2008,03,23,08,00,4.10
2008,03,23,08,01,4.10
2008,03,23,08,02,4.10
2008,03,23,08,03,4.10
2008,03,23,08,04,4.10
2008,03,23,08,05,4.00
2008,03,23,08,06,4.00
2008,03,23,08,07,4.00
2008,03,23,08,08,4.00
2008,03,23,08,09,4.00
2008,03,23,08,10,3.90
2008,03,23,08,11,3.90
2008,03,23,08,12,3.90
2008,03,23,08,13,3.90
2008,03,23,08,14,3.90
2008,03,23,08,15,3.80
2008,03,23,08,16,3.80
2008,03,23,08,17,3.80
2008,03,23,08,18,3.80
2008,03,23,08,19,3.80
2008,03,23,08,20,3.80
2008,03,23,08,21,3.80
2008,03,23,08,22,3.80
2008,03,23,08,23,3.80
2008,03,23,08,24,3.80
2008,03,23,08,25,3.80
2008,03,23,08,26,3.80
2008,03,23,08,27,3.70
2008,03,23,08,28,3.70
2008,03,23,08,29,3.70
2008,03,23,08,30,3.70
2008,03,23,08,31,3.70
2008,03,23,08,32,3.70
2008,03,23,08,33,3.70
2008,03,23,08,34,3.70
2008,03,23,08,35,3.70
2008,03,23,08,36,3.70
2008,03,23,08,37,3.70
2008,03,23,08,38,3.70
2008,03,23,08,39,3.80
2008,03,23,08,40,3.80
2008,03,23,08,41,3.80
2008,03,23,08,42,3.80
2008,03,23,08,43,3.80
2008,03,23,08,44,3.80
2008,03,23,08,45,3.80
2008,03,23,08,46,3.70
2008,03,23,08,47,3.70
2008,03,23,08,48,3.70
2008,03,23,08,49,3.70
2008,03,23,08,50,3.70
2008,03,23,08,51,3.70
2008,03,23,08,52,3.70
2008,03,23,08,53,3.70
2008,03,23,08,54,3.70
2008,03,23,08,55,3.60
2008,03,23,08,56,3.60
2008,03,23,08,57,3.60
2008,03,23,08,58,3.60
2008,03,23,08,59,3.60
2008,03,23,09,00,3.60
2008,03,23,09,01,3.60
2008,03,23,09,02,3.60
2008,03,23,09,03,3.60
2008,03,23,09,04,3.60
2008,03,23,09,05,3.60
2008,03,23,09,06,3.50
2008,03,23,09,07,3.50
2008,03,23,09,08,3.50
2008,03,23,09,09,3.50
2008,03,23,09,10,3.50
2008,03,23,09,11,3.50
2008,03,23,09,12,3.50
2008,03,23,09,13,3.50
2008,03,23,09,14,3.50
2008,03,23,09,15,3.50
2008,03,23,09,16,3.50
2008,03,23,09,17,3.50
2008,03,23,09,18,3.50
2008,03,23,09,19,3.50
2008,03,23,09,20,3.50
2008,03,23,09,21,3.60
2008,03,23,09,22,3.60
2008,03,23,09,23,3.60
2008,03,23,09,24,3.60
2008,03,23,09,25,3.60
2008,03,23,09,26,3.60
2008,03,23,09,27,3.60
2008,03,23,09,28,3.60
2008,03,23,09,29,3.70
2008,03,23,09,30,3.70
2008,03,23,09,31,3.80
2008,03,23,09,32,3.80
2008,03,23,09,33,3.80
2008,03,23,09,34,3.90
2008,03,23,09,35,4.00
2008,03,23,09,36,4.00
2008,03,23,09,37,4.10
2008,03,23,09,38,4.20
2008,03,23,09,39,4.20
2008,03,23,09,40,4.30
2008,03,23,09,41,4.40
2008,03,23,09,42,4.50
2008,03,23,09,43,4.50
2008,03,23,09,44,4.60
2008,03,23,09,45,4.70
2008,03,23,09,46,4.80
2008,03,23,09,47,4.80
2008,03,23,09,48,4.90
2008,03,23,09,49,4.90
2008,03,23,09,50,5.10
2008,03,23,09,51,5.10
2008,03,23,09,52,5.10
2008,03,23,09,53,5.30
2008,03,23,09,54,5.40
2008,03,23,09,55,5.50
2008,03,23,09,56,5.50
2008,03,23,09,57,5.60
2008,03,23,09,58,5.60
2008,03,23,09,59,5.70
2008,03,23,10,00,5.70
2008,03,23,10,01,5.70
2008,03,23,10,02,5.70
2008,03,23,10,03,5.70
2008,03,23,10,04,5.80
2008,03,23,10,05,5.80
2008,03,23,10,06,5.80
2008,03,23,10,07,5.80
2008,03,23,10,08,5.80
2008,03,23,10,09,5.90
2008,03,23,10,10,5.90
2008,03,23,10,11,5.90
2008,03,23,10,12,6.00
2008,03,23,10,13,6.00
2008,03,23,10,14,6.10
2008,03,23,10,15,6.20
2008,03,23,10,16,6.20
2008,03,23,10,17,6.20
2008,03,23,10,18,6.30
2008,03,23,10,19,6.40
2008,03,23,10,20,6.40
2008,03,23,10,21,6.50
2008,03,23,10,22,6.60
2008,03,23,10,23,6.60
2008,03,23,10,24,6.60
2008,03,23,10,25,6.60
2008,03,23,10,26,6.70
2008,03,23,10,27,6.70
2008,03,23,10,28,6.80
2008,03,23,10,29,6.80
2008,03,23,10,30,6.80
2008,03,23,10,31,6.80
2008,03,23,10,32,6.90
2008,03,23,10,33,6.90
2008,03,23,10,34,6.90
2008,03,23,10,35,6.90
2008,03,23,10,36,6.80
2008,03,23,10,37,6.80
2008,03,23,10,38,6.90
2008,03,23,10,39,7.00
2008,03,23,10,40,7.00
2008,03,23,10,41,7.10
2008,03,23,10,42,7.20
2008,03,23,10,43,7.20
2008,03,23,10,44,7.30
2008,03,23,10,45,7.30
2008,03,23,10,46,7.30
2008,03,23,10,47,7.30
2008,03,23,10,48,7.30
2008,03,23,10,49,7.20
2008,03,23,10,50,7.10
2008,03,23,10,51,7.10
2008,03,23,10,52,7.10
2008,03,23,10,53,7.10
2008,03,23,10,54,7.10
2008,03,23,10,55,7.10
2008,03,23,10,56,7.20
2008,03,23,10,57,7.20
2008,03,23,10,58,7.30
2008,03,23,10,59,7.30
2008,03,23,11,00,7.30
2008,03,23,11,01,7.40
2008,03,23,11,02,7.40
2008,03,23,11,03,7.40
2008,03,23,11,04,7.50
2008,03,23,11,05,7.50
2008,03,23,11,06,7.40
2008,03,23,11,07,7.40
2008,03,23,11,08,7.40
2008,03,23,11,09,7.40
2008,03,23,11,10,7.40
2008,03,23,11,11,7.40
2008,03,23,11,12,7.50
2008,03,23,11,13,7.50
2008,03,23,11,14,7.60
2008,03,23,11,15,7.70
2008,03,23,11,16,7.80
2008,03,23,11,17,7.80
2008,03,23,11,18,7.80
2008,03,23,11,19,7.90
2008,03,23,11,20,8.00
2008,03,23,11,21,8.10
2008,03,23,11,22,8.10
2008,03,23,11,23,8.20
2008,03,23,11,24,8.20
2008,03,23,11,25,8.20
2008,03,23,11,26,8.20
2008,03,23,11,27,8.20
2008,03,23,11,28,8.20
2008,03,23,11,29,8.20
2008,03,23,11,30,8.20
2008,03,23,11,31,8.20
2008,03,23,11,32,8.10
2008,03,23,11,33,8.10
2008,03,23,11,34,8.00
2008,03,23,11,35,8.10
2008,03,23,11,36,8.10
2008,03,23,11,37,8.10
2008,03,23,11,38,8.20
2008,03,23,11,39,8.20
2008,03,23,11,40,8.20
2008,03,23,11,41,8.30
2008,03,23,11,42,8.30
2008,03,23,11,43,8.30
2008,03,23,11,44,8.30
2008,03,23,11,45,8.30
2008,03,23,11,46,8.30
2008,03,23,11,47,8.20
2008,03,23,11,48,8.20
2008,03,23,11,49,8.10
2008,03,23,11,50,8.10
2008,03,23,11,51,8.00
2008,03,23,11,52,8.00
2008,03,23,11,53,7.90
2008,03,23,11,54,7.90
2008,03,23,11,55,7.80
2008,03,23,11,56,7.80
2008,03,23,11,57,7.80
2008,03,23,11,58,7.80
2008,03,23,11,59,7.80
2008,03,23,12,00,7.80
2008,03,23,12,01,7.80
2008,03,23,12,02,7.80
2008,03,23,12,03,7.80
2008,03,23,12,04,7.70
2008,03,23,12,05,7.70
2008,03,23,12,06,7.70
2008,03,23,12,07,7.70
2008,03,23,12,08,7.70
2008,03,23,12,09,7.70
2008,03,23,12,10,7.70
2008,03,23,12,11,7.70
2008,03,23,12,12,7.70
2008,03,23,12,13,7.70
2008,03,23,12,14,7.60
2008,03,23,12,15,7.60
2008,03,23,12,16,7.60
2008,03,23,12,17,7.60
2008,03,23,12,18,7.60
2008,03,23,12,19,7.50
2008,03,23,12,20,7.50
2008,03,23,12,21,7.50
2008,03,23,12,22,7.40
2008,03,23,12,23,7.40
2008,03,23,12,24,7.40
2008,03,23,12,25,7.50
2008,03,23,12,26,7.50
2008,03,23,12,27,7.50
2008,03,23,12,28,7.50
2008,03,23,12,29,7.50
2008,03,23,12,30,7.60
2008,03,23,12,31,7.60
2008,03,23,12,32,7.60
2008,03,23,12,33,7.60
2008,03,23,12,34,7.60
2008,03,23,12,35,7.70
2008,03,23,12,36,7.70
2008,03,23,12,37,7.70
2008,03,23,12,38,7.70
2008,03,23,12,39,7.70
2008,03,23,12,40,7.70
2008,03,23,12,41,7.70
2008,03,23,12,42,7.60
2008,03,23,12,43,7.70
2008,03,23,12,44,7.70
2008,03,23,12,45,7.70
2008,03,23,12,46,7.70
2008,03,23,12,47,7.80
2008,03,23,12,48,7.80
2008,03,23,12,49,7.80
2008,03,23,12,50,7.90
2008,03,23,12,51,7.90
2008,03,23,12,52,7.90
2008,03,23,12,53,7.90
2008,03,23,12,54,7.90
2008,03,23,12,55,7.90
2008,03,23,12,56,7.90
2008,03,23,12,57,7.90
2008,03,23,12,58,7.80
2008,03,23,12,59,7.80
2008,03,23,13,00,7.90
2008,03,23,13,01,7.90
2008,03,23,13,02,7.90
2008,03,23,13,03,8.00
2008,03,23,13,04,8.00
2008,03,23,13,05,8.00
2008,03,23,13,06,8.00
2008,03,23,13,07,7.90
2008,03,23,13,08,7.90
2008,03,23,13,09,7.90
2008,03,23,13,10,7.90
2008,03,23,13,11,7.90
2008,03,23,13,12,7.90
2008,03,23,13,13,7.90
2008,03,23,13,14,7.90
2008,03,23,13,15,7.90
2008,03,23,13,16,7.90
2008,03,23,13,17,7.90
2008,03,23,13,18,8.00
2008,03,23,13,19,8.10
2008,03,23,13,20,8.10
2008,03,23,13,21,8.20
2008,03,23,13,22,8.20
2008,03,23,13,23,8.20
2008,03,23,13,24,8.10
2008,03,23,13,25,8.10
2008,03,23,13,26,8.10
2008,03,23,13,27,8.10
2008,03,23,13,28,8.10
2008,03,23,13,29,8.10
2008,03,23,13,30,8.20
2008,03,23,13,31,8.20
2008,03,23,13,32,8.20
2008,03,23,13,33,8.20
2008,03,23,13,34,8.30
2008,03,23,13,35,8.30
2008,03,23,13,36,8.30
2008,03,23,13,37,8.40
2008,03,23,13,38,8.40
2008,03,23,13,39,8.50
2008,03,23,13,40,8.40
2008,03,23,13,41,8.40
2008,03,23,13,42,8.40
2008,03,23,13,43,8.30
2008,03,23,13,44,8.20
2008,03,23,13,45,8.20
2008,03,23,13,46,8.20
2008,03,23,13,47,8.20
2008,03,23,13,48,8.20
2008,03,23,13,49,8.10
2008,03,23,13,50,8.10
2008,03,23,13,51,8.00
2008,03,23,13,52,8.00
2008,03,23,13,53,7.90
2008,03,23,13,54,7.90
2008,03,23,13,55,7.80
2008,03,23,13,56,7.80
2008,03,23,13,57,7.80
2008,03,23,13,58,7.80
2008,03,23,13,59,7.80
2008,03,23,14,00,7.80
2008,03,23,14,01,7.80
2008,03,23,14,02,7.80
2008,03,23,14,03,7.80
2008,03,23,14,04,7.80
2008,03,23,14,05,7.80
2008,03,23,14,06,7.80
2008,03,23,14,07,7.70
2008,03,23,14,08,7.80
2008,03,23,14,09,7.80
2008,03,23,14,10,7.80
2008,03,23,14,11,7.80
2008,03,23,14,12,7.80
2008,03,23,14,13,7.90
2008,03,23,14,14,7.90
2008,03,23,14,15,7.90
2008,03,23,14,16,7.90
2008,03,23,14,17,7.90
2008,03,23,14,18,8.00
2008,03,23,14,19,8.00
2008,03,23,14,20,8.00
2008,03,23,14,21,8.00
2008,03,23,14,22,8.00
2008,03,23,14,23,8.10
2008,03,23,14,24,8.10
2008,03,23,14,25,8.10
2008,03,23,14,26,8.10
2008,03,23,14,27,8.10
2008,03,23,14,28,8.10
2008,03,23,14,29,8.10
2008,03,23,14,30,8.10
2008,03,23,14,31,8.10
2008,03,23,14,32,8.10
2008,03,23,14,33,8.10
2008,03,23,14,34,8.20
2008,03,23,14,35,8.20
2008,03,23,14,36,8.20
2008,03,23,14,37,8.20
2008,03,23,14,38,8.30
2008,03,23,14,39,8.20
2008,03,23,14,40,8.20
2008,03,23,14,41,8.20
2008,03,23,14,42,8.30
2008,03,23,14,43,8.30
2008,03,23,14,44,8.30
2008,03,23,14,45,8.30
2008,03,23,14,46,8.30
2008,03,23,14,47,8.30
2008,03,23,14,48,8.20
2008,03,23,14,49,8.20
2008,03,23,14,50,8.20
2008,03,23,14,51,8.20
2008,03,23,14,52,8.10
2008,03,23,14,53,8.20
2008,03,23,14,54,8.20
2008,03,23,14,55,8.20
2008,03,23,14,56,8.10
2008,03,23,14,57,8.10
2008,03,23,14,58,8.10
2008,03,23,14,59,8.00
2008,03,23,15,00,7.90
2008,03,23,15,01,7.80
2008,03,23,15,02,7.80
2008,03,23,15,03,7.70
2008,03,23,15,04,7.60
2008,03,23,15,05,7.60
2008,03,23,15,06,7.50
2008,03,23,15,07,7.50
2008,03,23,15,08,7.40
2008,03,23,15,09,7.30
2008,03,23,15,10,7.30
2008,03,23,15,11,7.20
2008,03,23,15,12,7.10
2008,03,23,15,13,7.10
2008,03,23,15,14,7.10
2008,03,23,15,15,7.10
2008,03,23,15,16,7.10
2008,03,23,15,17,7.10
2008,03,23,15,18,7.10
2008,03,23,15,19,7.10
2008,03,23,15,20,7.10
2008,03,23,15,21,7.10
2008,03,23,15,22,7.00
2008,03,23,15,23,7.00
2008,03,23,15,24,7.00
2008,03,23,15,25,6.90
2008,03,23,15,26,6.90
2008,03,23,15,27,7.00
2008,03,23,15,28,7.00
2008,03,23,15,29,6.90
2008,03,23,15,30,6.90
2008,03,23,15,31,6.90
2008,03,23,15,32,6.90
2008,03,23,15,33,6.90
2008,03,23,15,34,6.90
2008,03,23,15,35,6.90
2008,03,23,15,36,6.90
2008,03,23,15,37,6.90
2008,03,23,15,38,6.90
2008,03,23,15,39,6.90
2008,03,23,15,40,6.90
2008,03,23,15,41,6.80
2008,03,23,15,42,6.80
2008,03,23,15,43,6.80
2008,03,23,15,44,6.80
2008,03,23,15,45,6.80
2008,03,23,15,46,6.70
2008,03,23,15,47,6.70
2008,03,23,15,48,6.60
2008,03,23,15,49,6.60
2008,03,23,15,50,6.50
2008,03,23,15,51,6.40
2008,03,23,15,52,6.30
2008,03,23,15,53,6.20
2008,03,23,15,54,6.00
2008,03,23,15,55,5.80
2008,03,23,15,56,5.50
2008,03,23,15,57,5.30
2008,03,23,15,58,5.20
2008,03,23,15,59,5.00
2008,03,23,16,00,4.90
2008,03,23,16,01,4.80
2008,03,23,16,02,4.80
2008,03,23,16,03,4.70
2008,03,23,16,04,4.60
2008,03,23,16,05,4.50
2008,03,23,16,06,4.40
2008,03,23,16,07,4.30
2008,03,23,16,08,4.20
2008,03,23,16,09,4.20
2008,03,23,16,10,4.20
2008,03,23,16,11,4.20
2008,03,23,16,12,4.20
2008,03,23,16,13,4.10
2008,03,23,16,14,4.10
2008,03,23,16,15,4.10
2008,03,23,16,16,4.10
2008,03,23,16,17,4.10
2008,03,23,16,18,4.10
2008,03,23,16,19,4.20
2008,03,23,16,20,4.20
2008,03,23,16,21,4.30
2008,03,23,16,22,4.50
2008,03,23,16,23,4.50
2008,03,23,16,24,4.60
2008,03,23,16,25,4.60
2008,03,23,16,26,4.60
2008,03,23,16,27,4.70
2008,03,23,16,28,4.80
2008,03,23,16,29,4.90
2008,03,23,16,30,5.00
2008,03,23,16,31,5.00
2008,03,23,16,32,4.90
2008,03,23,16,33,5.00
2008,03,23,16,34,5.10
2008,03,23,16,35,5.10
2008,03,23,16,36,5.20
2008,03,23,16,37,5.30
2008,03,23,16,38,5.30
2008,03,23,16,39,5.30
2008,03,23,16,40,5.30
2008,03,23,16,41,5.30
2008,03,23,16,42,5.40
2008,03,23,16,43,5.50
2008,03,23,16,44,5.60
2008,03,23,16,45,5.60
2008,03,23,16,46,5.60
2008,03,23,16,47,5.60
2008,03,23,16,48,5.70
2008,03,23,16,49,5.70
2008,03,23,16,50,5.80
2008,03,23,16,51,5.80
2008,03,23,16,52,5.80
2008,03,23,16,53,5.80
2008,03,23,16,54,5.90
2008,03,23,16,55,5.90
2008,03,23,16,56,5.80
2008,03,23,16,57,5.80
2008,03,23,16,58,5.80
2008,03,23,16,59,5.70
2008,03,23,17,00,5.70
2008,03,23,17,01,5.70
2008,03,23,17,02,5.70
2008,03,23,17,03,5.70
2008,03,23,17,04,5.70
2008,03,23,17,05,5.70
2008,03,23,17,06,5.70
2008,03,23,17,07,5.70
2008,03,23,17,08,5.70
2008,03,23,17,09,5.70
2008,03,23,17,10,5.70
2008,03,23,17,11,5.80
2008,03,23,17,12,5.80
2008,03,23,17,13,5.80
2008,03,23,17,14,5.80
2008,03,23,17,15,5.80
2008,03,23,17,16,5.80
2008,03,23,17,17,5.90
2008,03,23,17,18,5.90
2008,03,23,17,19,5.90
2008,03,23,17,20,6.00
2008,03,23,17,21,6.00
2008,03,23,17,22,6.10
2008,03,23,17,23,6.10
2008,03,23,17,24,6.20
2008,03,23,17,25,6.20
2008,03,23,17,26,6.20
2008,03,23,17,27,6.30
2008,03,23,17,28,6.30
2008,03,23,17,29,6.30
2008,03,23,17,30,6.30
2008,03,23,17,31,6.30
2008,03,23,17,32,6.40
2008,03,23,17,33,6.40
2008,03,23,17,34,6.40
2008,03,23,17,35,6.40
2008,03,23,17,36,6.40
2008,03,23,17,37,6.40
2008,03,23,17,38,6.40
2008,03,23,17,39,6.40
2008,03,23,17,40,6.40
2008,03,23,17,41,6.40
2008,03,23,17,42,6.40
2008,03,23,17,43,6.40
2008,03,23,17,44,6.40
2008,03,23,17,45,6.40
2008,03,23,17,46,6.30
2008,03,23,17,47,6.30
2008,03,23,17,48,6.30
2008,03,23,17,49,6.30
2008,03,23,17,50,6.30
2008,03,23,17,51,6.30
2008,03,23,17,52,6.40
2008,03,23,17,53,6.40
2008,03,23,17,54,6.40
2008,03,23,17,55,6.40
2008,03,23,17,56,6.40
2008,03,23,17,57,6.40
2008,03,23,17,58,6.40
2008,03,23,17,59,6.40
2008,03,23,18,00,6.40
2008,03,23,18,01,6.40
2008,03,23,18,02,6.30
2008,03,23,18,03,6.30
2008,03,23,18,04,6.30
2008,03,23,18,05,6.30
2008,03,23,18,06,6.30